Location: Newark
(42.8481°N, 0.4872°E)
Time: 07:55:04
(UTC+00:00)

SR - Pass Details

Date: 02 November 2020
Orbit: 579 x 876 km, 66.7° (Epoch: 29 November)

Event Time Altitude Azimuth Distance (km) Brightness Sun altitude
Rises 00:02:04 0° 178° (S) 2,780 - -61.6°
Reaches altitude 10° 00:04:34 10° 165° (SSE) 1,886 - -61.5°
Maximum altitude 00:07:59 24° 110° (ESE) 1,212 - -61.4°
Drops below altitude 10° 00:11:29 10° 56° (NE) 1,941 - -61.3°
Sets 00:14:06 0° 43° (NE) 2,883 - -61.1°
